User: anonymous
Location: Unspecified
(0.0000°N, 0.0000°E)
Time: 00:45:44
(UTC+02:00)
Language:

Delta 2 Rocket - Orbit

View from above orbital plane
View from above orbital plane
View from above satellite
View from above satellite

Ground track
Ground track

The orbit data is extracted from the following two-line orbital elements,

1 20453U 90008B   14292.73014911  .00012469  00000-0  79226-3 0  1077
2 20453 035.6251 153.7835 0319428 042.3319 320.1581 14.74629791304163
Epoch (UTC): 19 October 2014 17:31:24
Eccentricity: 0.0319428
inclination: 35.6251°
perigee height: 422 km
apogee height: 871 km
right ascension of ascending node: 153.7835°
argument of perigee: 42.3319°
revolutions per day: 14.74629791
mean anomaly at epoch: 320.1581°
orbit number at epoch: 30416

The dashed part of the orbit path shows where the satellite is in the earth's shadow,  

DLR